Zurück zum Katalog

STARLINK-32755

AktivKommunikationVLEO
NORAD 62842·PAYLOAD·🇺🇸 United States

Gestartet Jan 27, 2025 von Cape Canaveral Space Force Station

Loading…

Nächste Überflüge (nächste 24 Stunden)

TLE

AktuellSource: CelesTrak SupGP

Epoche: Sep 14, 2026, 14:24 UTC

1 62842C 25019P   26257.60048611  .00004566  00000+0  16539-3 0  2571
2 62842  43.0024  95.0734 0001436 259.6816 105.1435 15.27571974    14

Verfolge STARLINK-32755 in Echtzeit mit AllMySat

Download on the App Store